This is the latest recevied weather packets stored in our database for station/object KF6RAL-6. If no packets are shown the sender has not sent any weather packets the latest 10 day(s).
| Time | Temp. | Humidity | Pressure | Rain* | Wind** | Luminosity | Snow |
|---|---|---|---|---|---|---|---|
| 1787881263 | 31.11° C | 29% | 1014.7 hPa | 0 mm | - | - | - |
| 1787880844 | 31.11° C | 29% | 1014.7 hPa | 0 mm | - | - | - |
| 1787880421 | 31.11° C | 29% | 1014.8 hPa | 0 mm | - | - | - |
| 1787880000 | 31.11° C | 30% | 1015 hPa | 0 mm | - | - | - |
| 1787879580 | 30° C | 33% | 1015 hPa | 0 mm | - | - | - |
| 1787879158 | 30° C | 35% | 1015 hPa | 0 mm | - | - | - |
| 1787878737 | 30° C | 36% | 1014.9 hPa | 0 mm | - | - | - |
| 1787878318 | 30° C | 36% | 1014.4 hPa | 0 mm | - | - | - |
| 1787877896 | 30° C | 37% | 1014.5 hPa | 0 mm | - | - | - |
| 1787877474 | 30° C | 35% | 1014.7 hPa | 0 mm | - | - | - |
| 1787877053 | 30° C | 36% | 1014.8 hPa | 0 mm | - | - | - |
| 1787876633 | 30.56° C | 36% | 1015.4 hPa | 0 mm | - | - | - |
| 1787876211 | 30.56° C | 34% | 1015.6 hPa | 0 mm | - | - | - |
| 1787875790 | 30.56° C | 32% | 1015.7 hPa | 0 mm | - | - | - |
| 1787875370 | 30.56° C | 32% | 1015.7 hPa | 0 mm | - | - | - |
| 1787874948 | 30.56° C | 33% | 1015.2 hPa | 0 mm | - | - | - |
| 1787874527 | 30° C | 34% | 1015.3 hPa | 0 mm | - | - | - |
| 1787873685 | 29.44° C | 42% | 1015.5 hPa | 0 mm | - | - | - |
| 1787873264 | 29.44° C | 41% | 1015.6 hPa | 0 mm | - | - | - |
| 1787872843 | 29.44° C | 43% | 1016.3 hPa | 0 mm | - | - | - |
| 1787872422 | 30° C | 44% | 1016.1 hPa | 0 mm | - | - | - |
| 1787872003 | 30° C | 42% | 1016.2 hPa | 0 mm | - | - | - |
| 1787871580 | 30° C | 37% | 1016.6 hPa | 0 mm | - | - | - |
| 1787871159 | 30° C | 40% | 1015.3 hPa | 0 mm | - | - | - |
| 1787870738 | 31.11° C | 46% | 1016 hPa | 0 mm | - | - | - |
* Rain latest hour (hover to see other rain measurements)
** Current wind speed in m/s (hover to see current wind gust speed)